User: anonymous   Login
Location: Trois-Rivi�res
(46.3500°N, 72.5500°W)
Time: 21:49:11
(UTC-04:00)
Language:

Cosmos 1544 - Orbit

View from above orbital plane
View from above orbital plane
View from above satellite
View from above satellite

Ground track
Ground track

The orbit data is extracted from the following two-line orbital elements,

1 14819U 84027A   15115.51049266  .00008984  00000-0  39929-3 0  9994
2 14819 082.4856 093.1706 0013780 271.3608 228.4723 15.21297177696450
Epoch (UTC): 25 April 2015 12:15:06
Eccentricity: 0.0013780
inclination: 82.4856°
perigee height: 492 km
apogee height: 511 km
right ascension of ascending node: 93.1706°
argument of perigee: 271.3608°
revolutions per day: 15.21297177
mean anomaly at epoch: 228.4723°
orbit number at epoch: 69645

The dashed part of the orbit path shows where the satellite is in the earth's shadow,  

DLR